Location: Buckeye Ditch
(40.9104°N, 122.9517°W)
Time: 12:18:06
(UTC+00:00)

Cosmos 2278 Rocket - Visible Passes

Search period start: 18 July 2024 00:00
Search period end: 28 July 2024 00:00
Orbit: 841 x 844 km, 71.0° (Epoch: 17 July)

Date Brightness Start Highest point End Pass type
(mag) Time Alt. Az. Time Alt. Az. Time Alt. Az.
18 Jul 2.6 05:29:14 26° SSE 05:31:51 41° ESE 05:37:07 10° NE visible
18 Jul 3.9 07:11:07 10° WSW 07:16:01 30° NW 07:20:56 10° N visible
19 Jul 2.7 05:13:28 18° SSE 05:17:07 39° ESE 05:22:20 10° NE visible
19 Jul 3.8 06:56:16 10° WSW 07:01:14 31° WNW 07:06:14 10° N visible
20 Jul 2.7 04:57:15 10° S 05:02:23 37° ESE 05:07:33 10° NE visible
20 Jul 3.8 06:41:26 10° WSW 06:46:27 32° WNW 06:51:31 10° N visible
21 Jul 2.8 04:42:35 10° SSE 04:47:39 35° ESE 04:52:44 10° NE visible
21 Jul 3.8 06:26:36 10° WSW 06:31:41 34° WNW 06:36:48 10° N visible
22 Jul 2.8 04:27:56 10° SSE 04:32:55 33° ESE 04:37:57 10° NE visible
22 Jul 3.7 06:11:46 10° WSW 06:16:55 35° WNW 06:22:05 10° N visible
23 Jul 2.9 04:13:15 10° SSE 04:18:12 32° ESE 04:23:09 10° NE visible
23 Jul 3.7 05:56:56 10° SW 06:02:08 37° WNW 06:07:22 10° N visible
24 Jul 3.0 03:58:36 10° SSE 04:03:28 30° ESE 04:08:19 10° NE visible
24 Jul 3.6 05:42:07 10° SW 05:47:22 38° WNW 05:52:39 10° N visible
25 Jul 3.6 05:27:18 10° SW 05:32:36 40° WNW 05:37:55 10° N visible
26 Jul 3.5 05:12:30 10° SW 05:17:49 42° WNW 05:23:11 10° N visible
26 Jul 5.4 12:23:53 10° NNE 12:27:07 15° NE 12:30:19 10° E visible
27 Jul 3.5 04:57:41 10° SW 05:03:04 44° WNW 05:08:28 10° NNE visible
27 Jul 5.4 12:09:14 10° NNE 12:12:19 15° NE 12:15:22 10° E visible
